Location: Newark
(55.7167°N, 12.5667°E)
Time: 23:11:18
(UTC+00:00)

N. Korean satellite - Pass Details

Date: 17 December 2019
Orbit: 454 x 508 km, 97.2° (Epoch: 20 January)

Event Time Altitude Azimuth Distance (km) Brightness Sun altitude
Rises 15:48:11 0° 161° (SSE) 2,591 10.4 -9.0°
Reaches altitude 10° 15:50:16 10° 160° (SSE) 1,706 9.4 -9.2°
Maximum altitude 15:53:56 80° 75° (ENE) 510 6.5 -9.7°
Drops below altitude 10° 15:57:35 10° 348° (NNW) 1,692 9.2 -10.1°
Sets 15:59:39 0° 347° (NNW) 2,569 10.1 -10.4°
